Location: 22
(39.7117°N, 89.5929°W)
Time: 06:43:03
(UTC-05:00)

A-11 Canister half - Pass Details

Date: 31 January 2023
Orbit: 1526 x 1682 km, 47.3° (Epoch: 01 April)

Event Time Altitude Azimuth Distance (km) Brightness Sun altitude
Rises 03:44:43 0° 179° (S) 4,674 11.5 -39.1°
Reaches altitude 10° 03:49:14 10° 160° (SSE) 3,685 11.1 -38.2°
Maximum altitude 03:54:29 17° 124° (SE) 3,188 11.0 -37.2°
Drops below altitude 10° 03:59:44 10° 89° (E) 3,698 11.8 -36.2°
Sets 04:04:15 0° 70° (ENE) 4,698 12.5 -35.4°
